Weather History for Lawton, OK

Change the Weather History Date:

Saturday, January 19, 2013

  Actual Average Record
Temperature  
Mean Temperature 44 °F -  
Max Temperature 64 °F 46 °F 76 °F (1951)
Min Temperature 25 °F 25 °F 5 °F (1963)
Degree Days  
Heating Degree Days 20    
Moisture  
Dew Point 30 °F    
Average Humidity 66    
Maximum Humidity 88    
Minimum Humidity 33    
Precipitation  
Precipitation 0.00 in - - ()
Sea Level Pressure  
Sea Level Pressure 30.18 in    
Wind  
Wind Speed 3 mph (SSW)    
Max Wind Speed 10 mph    
Max Gust Speed -    
Visibility 10 miles    
Events      
Averages and records for this station are not official NWS values.
T = Trace of Precipitation, MM = Missing Value Source: NWS Daily Summary

Daily Weather History Graph

Daily Weather History Graph

Search for Another Location

Airport:

Trip Planner

Search our weather history database for the weather conditions in past years. The results will help you decide how hot, cold, wet, or windy it might be!

Date:

Astronomy

Jan. 19, 2013 Rise Set
Actual Time 7:38 AM CST 5:50 PM CST
Civil Twilight 7:11 AM CST 6:17 PM CST
Nautical Twilight 6:40 AM CST 6:48 PM CST
Astronomical Twilight 6:10 AM CST 7:18 PM CST
Moon 12:14 PM CST (1/19) 1:18 AM CST (1/19)
Length of Visible Light 11h 06m
Length of Day
10h 11m
First Quarter, 57% of the Moon is Illuminated
Jan 19
First Quarter
Jan 26
Full
Feb 3
Last Quarter
Feb 10
New
Feb 17
First Quarter

Hourly Weather History & Observations

Time (CST) Temp. Windchill Dew Point Humidity Pressure Visibility Wind Dir Wind Speed Gust Speed Precip Events Conditions
12:53 AM 39.0 °F 36.8 °F 28.9 °F 67% 30.20 in 10.0 mi South 3.5 mph - N/A   Clear
1:53 AM 37.0 °F - 28.9 °F 73% 30.19 in 10.0 mi Calm Calm - N/A   Clear
2:53 AM 32.0 °F 28.7 °F 27.0 °F 82% 30.19 in 10.0 mi NE 3.5 mph - N/A   Clear
3:53 AM 28.0 °F - 25.0 °F 88% 30.18 in 10.0 mi Calm Calm - N/A   Clear
4:53 AM 26.1 °F - 23.0 °F 88% 30.17 in 10.0 mi Calm Calm - N/A   Clear
5:53 AM 25.0 °F - 21.9 °F 88% 30.17 in 10.0 mi Calm Calm - N/A   Clear
6:53 AM 25.0 °F - 21.9 °F 88% 30.17 in 10.0 mi Calm Calm - N/A   Clear
7:53 AM 25.0 °F 20.7 °F 21.9 °F 88% 30.18 in 10.0 mi NNW 3.5 mph - N/A   Clear
8:53 AM 32.0 °F - 28.0 °F 85% 30.19 in 10.0 mi Calm Calm - N/A   Clear
9:53 AM 45.0 °F 41.2 °F 33.1 °F 63% 30.20 in 10.0 mi SSW 6.9 mph - N/A   Clear
10:53 AM 51.1 °F - 35.1 °F 54% 30.19 in 10.0 mi South 10.4 mph - N/A   Clear
11:53 AM 55.0 °F - 35.1 °F 47% 30.16 in 10.0 mi SSW 9.2 mph - N/A   Clear
12:53 PM 57.9 °F - 35.1 °F 42% 30.14 in 10.0 mi SW 6.9 mph - N/A   Clear
1:53 PM 61.0 °F - 35.1 °F 38% 30.12 in 10.0 mi SSW 8.1 mph - N/A   Clear
2:53 PM 62.1 °F - 35.1 °F 37% 30.11 in 10.0 mi SSW 5.8 mph - N/A   Clear
3:53 PM 64.0 °F - 34.0 °F 33% 30.12 in 10.0 mi Variable 3.5 mph - N/A   Clear
4:53 PM 64.0 °F - 34.0 °F 33% 30.13 in 10.0 mi Calm Calm - N/A   Clear
5:53 PM 57.9 °F - 35.1 °F 42% 30.15 in 10.0 mi SSE 3.5 mph - N/A   Clear
6:53 PM 48.9 °F - 34.0 °F 56% 30.17 in 10.0 mi Calm Calm - N/A   Clear
7:53 PM 41.0 °F 37.1 °F 33.1 °F 73% 30.21 in 10.0 mi NNW 5.8 mph - N/A   Clear
8:53 PM 39.0 °F - 30.9 °F 73% 30.23 in 10.0 mi Calm Calm - N/A   Clear
9:53 PM 37.0 °F - 30.9 °F 79% 30.22 in 10.0 mi Calm Calm - N/A   Clear
10:53 PM 34.0 °F - 28.9 °F 82% 30.23 in 10.0 mi Calm Calm - N/A   Clear
11:53 PM 32.0 °F - 26.1 °F 79% 30.22 in 10.0 mi Calm Calm - N/A   Clear